Location: Glenbow
(51.1592°N, 114.3828°W)
Time: 16:37:17
(UTC+00:00)

X-37B - Pass Details

Date: 09 December 2021
Orbit: 334 x 337 km, 45.0° (Epoch: 11 January)

Event Time Altitude Azimuth Distance (km) Brightness Sun altitude
Rises 01:09:19 0° 211° (SSW) 2,096 5.1 -14.5°
Reaches altitude 10° 01:12:31 10° 171° (S) 1,264 3.3 -15.0°
Maximum altitude 01:13:17 11° 155° (SSE) 1,221 3.0 -15.1°
Enters shadow 01:13:47 10° 145° (SE) 1,240 3.0 -15.2°
